| time (UTC) | temp C | wind direction | speed KPH | gust KPH | rain 1hr cm | rain 24hr cm | rain mn cm | humidity % | barometer mb |
| 20260506223004 | 29 | 203 | 30.6 | 40.2 | 0.00 | 0.00 | 0.00 | 31 | 1009.5 |
| 20260506221601 | 28 | 210 | 20.9 | 35.4 | 0.00 | 0.00 | 0.00 | 31 | 1009.7 |
| 20260506220040 | 28 | 240 | 29.0 | 38.6 | 0.00 | 0.00 | 0.00 | 29 | 1009.9 |
| 20260506214539 | 28 | 207 | 29.0 | 38.6 | 0.00 | 0.00 | 0.00 | 31 | 1010.0 |
| 20260506213020 | 28 | 231 | 33.8 | 45.1 | 0.00 | 0.00 | 0.00 | 31 | 1010.0 |
| 20260506211513 | 28 | 200 | 33.8 | 53.1 | 0.00 | 0.00 | 0.00 | 33 | 1010.2 |
| 20260506210054 | 28 | 210 | 33.8 | 51.5 | 0.00 | 0.00 | 0.00 | 32 | 1010.3 |
| 20260506204559 | 27 | 227 | 40.2 | 54.7 | 0.00 | 0.00 | 0.00 | 32 | 1010.4 |
| 20260506203034 | 27 | 239 | 32.2 | 53.1 | 0.00 | 0.00 | 0.00 | 33 | 1010.4 |
| 20260506201536 | 27 | 211 | 37.0 | 56.3 | 0.00 | 0.00 | 0.00 | 33 | 1010.4 |
| 20260506200022 | 27 | 245 | 38.6 | 51.5 | 0.00 | 0.00 | 0.00 | 33 | 1010.5 |
| 20260506194518 | 27 | 262 | 40.2 | 59.5 | 0.00 | 0.00 | 0.00 | 34 | 1010.7 |
| 20260506193018 | 27 | 226 | 30.6 | 49.9 | 0.00 | 0.00 | 0.00 | 36 | 1011.0 |
| 20260506191514 | 26 | 274 | 32.2 | 49.9 | 0.00 | 0.00 | 0.00 | 35 | 1011.0 |
| 20260506190011 | 26 | 201 | 40.2 | 51.5 | 0.00 | 0.00 | 0.00 | 39 | 1011.0 |
| 20260506184509 | 26 | 210 | 33.8 | 46.7 | 0.00 | 0.00 | 0.00 | 40 | 1011.2 |
| 20260506183007 | 25 | 230 | 32.2 | 43.5 | 0.00 | 0.00 | 0.00 | 41 | 1011.3 |
| 20260506181505 | 25 | 224 | 27.4 | 37.0 | 0.00 | 0.00 | 0.00 | 43 | 1011.4 |
| 20260506180045 | 24 | 249 | 24.1 | 35.4 | 0.00 | 0.00 | 0.00 | 44 | 1011.6 |
| 20260506174543 | 23 | 200 | 24.1 | 33.8 | 0.00 | 0.00 | 0.00 | 44 | 1012.0 |
| 20260506173023 | 23 | 219 | 22.5 | 35.4 | 0.00 | 0.00 | 0.00 | 46 | 1011.8 |
| 20260506171534 | 23 | 250 | 27.4 | 40.2 | 0.00 | 0.00 | 0.00 | 45 | 1011.8 |
| 20260506170001 | 22 | 249 | 24.1 | 35.4 | 0.00 | 0.00 | 0.00 | 46 | 1012.1 |
| 20260506164558 | 22 | 215 | 25.7 | 35.4 | 0.00 | 0.00 | 0.00 | 47 | 1012.2 |
| 20260506163037 | 22 | 229 | 24.1 | 35.4 | 0.00 | 0.00 | 0.00 | 48 | 1012.3 |
| 20260506161539 | 21 | 215 | 25.7 | 33.8 | 0.00 | 0.00 | 0.00 | 49 | 1012.3 |
| 20260506160011 | 21 | 238 | 24.1 | 35.4 | 0.00 | 0.00 | 0.00 | 52 | 1012.2 |
| 20260506154507 | 20 | 215 | 24.1 | 33.8 | 0.00 | 0.00 | 0.00 | 53 | 1012.1 |
| 20260506153047 | 20 | 235 | 24.1 | 37.0 | 0.00 | 0.00 | 0.00 | 55 | 1012.0 |
| 20260506151602 | 20 | 241 | 24.1 | 32.2 | 0.00 | 0.00 | 0.00 | 54 | 1012.0 |
| 20260506150031 | 20 | 207 | 25.7 | 35.4 | 0.00 | 0.00 | 0.00 | 51 | 1012.1 |
| 20260506144526 | 20 | 202 | 16.1 | 25.7 | 0.00 | 0.00 | 0.00 | 50 | 1012.1 |
| 20260506143025 | 20 | 277 | 14.5 | 24.1 | 0.00 | 0.00 | 0.00 | 47 | 1012.0 |
| 20260506141503 | 19 | 232 | 9.7 | 24.1 | 0.00 | 0.00 | 0.00 | 47 | 1012.0 |
| 20260506140059 | 18 | 257 | 12.9 | 22.5 | 0.00 | 0.00 | 0.00 | 47 | 1011.9 |
| 20260506134545 | 17 | 266 | 6.4 | 11.3 | 0.00 | 0.00 | 0.00 | 52 | 1011.7 |
| 20260506133045 | 16 | 165 | 0.0 | 0.0 | 0.00 | 0.00 | 0.00 | 54 | 1011.6 |
| 20260506131541 | 16 | 210 | 0.0 | 0.0 | 0.00 | 0.00 | 0.00 | 54 | 1011.4 |
| 20260506130038 | 16 | 259 | 0.0 | 0.0 | 0.00 | 0.00 | 0.00 | 51 | 1011.3 |
| 20260506124537 | 17 | 290 | 0.0 | 8.0 | 0.00 | 0.00 | 0.00 | 48 | 1011.1 |
| 20260506123034 | 17 | 267 | 0.0 | 11.3 | 0.00 | 0.00 | 0.00 | 49 | 1011.1 |
| 20260506121530 | 17 | 271 | 8.0 | 12.9 | 0.00 | 0.00 | 0.00 | 52 | 1010.9 |
| 20260506120011 | 17 | 296 | 0.0 | 4.8 | 0.00 | 0.00 | 0.00 | 51 | 1010.7 |
| 20260506114509 | 16 | 316 | 3.2 | 9.7 | 0.00 | 0.00 | 0.00 | 52 | 1010.6 |
| 20260506113111 | 17 | 302 | 1.6 | 6.4 | 0.00 | 0.00 | 0.00 | 52 | 1010.5 |
| 20260506111553 | 16 | 296 | 0.0 | 0.0 | 0.00 | 0.00 | 0.00 | 53 | 1010.4 |
| 20260506110100 | 16 | 290 | 0.0 | 0.0 | 0.00 | 0.00 | 0.00 | 54 | 1010.3 |
| 20260506104533 | 16 | 153 | 0.0 | 0.0 | 0.00 | 0.00 | 0.00 | 58 | 1010.3 |
| 20260506103032 | 17 | 291 | 0.0 | 0.0 | 0.00 | 0.00 | 0.00 | 53 | 1010.2 |
| 20260506101523 | 17 | 322 | 1.6 | 4.8 | 0.00 | 0.00 | 0.00 | 53 | 1010.0 |
| 20260506100014 | 17 | 274 | 0.0 | 1.6 | 0.00 | 0.00 | 0.00 | 56 | 1010.0 |
| 20260506094559 | 17 | 298 | 0.0 | 1.6 | 0.00 | 0.00 | 0.00 | 54 | 1010.0 |
| 20260506093103 | 17 | 277 | 0.0 | 1.6 | 0.00 | 0.00 | 0.00 | 54 | 1010.1 |
| 20260506091538 | 18 | 262 | 0.0 | 0.0 | 0.00 | 0.00 | 0.00 | 52 | 1010.1 |
| 20260506090038 | 18 | 278 | 0.0 | 0.0 | 0.00 | 0.00 | 0.00 | 50 | 1010.1 |
| 20260506084522 | 17 | 322 | 0.0 | 8.0 | 0.00 | 0.00 | 0.00 | 53 | 1010.0 |
| 20260506083020 | 17 | 120 | 0.0 | 11.3 | 0.00 | 0.00 | 0.00 | 53 | 1009.9 |
| 20260506081502 | 19 | 157 | 1.6 | 12.9 | 0.00 | 0.00 | 0.00 | 49 | 1009.8 |
| 20260506073045 | 20 | 89 | 0.0 | 0.0 | 0.00 | 0.00 | 0.00 | 46 | 1009.2 |
| 20260506071523 | 21 | 26 | 0.0 | 0.0 | 0.00 | 0.00 | 0.00 | 43 | 1009.3 |
| 20260506061546 | 20 | 281 | 6.4 | 9.7 | 0.00 | 0.00 | 0.00 | 45 | 1009.1 |
| 20260506044559 | 22 | 308 | 6.4 | 11.3 | 0.00 | 0.00 | 0.00 | 37 | 1008.7 |
| 20260506043051 | 22 | 300 | 9.7 | 14.5 | 0.00 | 0.00 | 0.00 | 37 | 1008.7 |
| 20260506041545 | 23 | 297 | 9.7 | 11.3 | 0.00 | 0.00 | 0.00 | 35 | 1008.6 |
| 20260506040033 | 23 | 298 | 9.7 | 12.9 | 0.00 | 0.00 | 0.00 | 34 | 1008.5 |
| 20260506034514 | 23 | 299 | 8.0 | 11.3 | 0.00 | 0.00 | 0.00 | 33 | 1008.4 |
| 20260506033014 | 25 | 304 | 6.4 | 9.7 | 0.00 | 0.00 | 0.00 | 31 | 1008.3 |
| 20260506031558 | 25 | 311 | 8.0 | 11.3 | 0.00 | 0.00 | 0.00 | 32 | 1008.2 |
| 20260506030055 | 26 | 339 | 0.0 | 0.0 | 0.00 | 0.00 | 0.00 | 31 | 1008.0 |
| 20260506024543 | 26 | 336 | 0.0 | 0.0 | 0.00 | 0.00 | 0.00 | 32 | 1008.0 |
| 20260506023044 | 27 | 264 | 0.0 | 0.0 | 0.00 | 0.00 | 0.00 | 30 | 1008.0 |
| 20260506021544 | 28 | 249 | 0.0 | 6.4 | 0.00 | 0.00 | 0.00 | 30 | 1008.0 |
| 20260506020042 | 28 | 195 | 0.0 | 8.0 | 0.00 | 0.00 | 0.00 | 31 | 1008.0 |
| 20260506014550 | 28 | 150 | 0.0 | 8.0 | 0.00 | 0.00 | 0.00 | 31 | 1008.0 |
| 20260506013041 | 28 | 127 | 0.0 | 9.7 | 0.00 | 0.00 | 0.00 | 30 | 1008.0 |
| 20260506011542 | 28 | 184 | 4.8 | 11.3 | 0.00 | 0.00 | 0.00 | 29 | 1008.0 |
| 20260506010040 | 28 | 195 | 6.4 | 14.5 | 0.00 | 0.00 | 0.00 | 30 | 1008.1 |
| 20260506004536 | 28 | 180 | 6.4 | 14.5 | 0.00 | 0.00 | 0.00 | 30 | 1008.1 |
| 20260506003021 | 28 | 140 | 0.0 | 16.1 | 0.00 | 0.00 | 0.00 | 25 | 1008.0 |
| 20260506001501 | 28 | 51 | 6.4 | 14.5 | 0.00 | 0.00 | 0.00 | 24 | 1008.1 |
| 20260506000002 | 28 | 93 | 12.9 | 19.3 | 0.00 | 0.00 | 0.00 | 24 | 1008.3 |
| 20260505234549 | 28 | 96 | 4.8 | 17.7 | 0.00 | 0.00 | 0.00 | 24 | 1008.4 |
| 20260505233047 | 28 | 86 | 20.9 | 25.7 | 0.00 | 0.00 | 0.00 | 24 | 1008.5 |
| 20260505231524 | 28 | 90 | 19.3 | 24.1 | 0.00 | 0.00 | 0.00 | 24 | 1008.5 |
| 20260505230026 | 28 | 113 | 11.3 | 25.7 | 0.00 | 0.00 | 0.00 | 26 | 1008.7 |
| 20260505224506 | 28 | 92 | 12.9 | 19.3 | 0.00 | 0.00 | 0.00 | 25 | 1008.8 |